AirNav   Air Wisconsin pilot careers
 
 1078 users online  

KGEO Brown County Airport
Georgetown, Ohio, USA

GOING TO GEORGETOWN?


FAA INFORMATION EFFECTIVE 03 JANUARY 2019

Location

FAA Identifier: GEO
Lat/Long: 38-52-55.0041N / 083-52-57.8520W
38-52.916735N / 083-52.964200W
38.8819456 / -83.8827367
(estimated)
Elevation: 957.6 ft. / 291.9 m (surveyed)
Variation: 05W (2000)
From city: 1 mile NE of GEORGETOWN, OH
Time zone: UTC -5 (UTC -4 during Daylight Saving Time)
Zip code: 45121

Airport Operations

Airport use: Open to the public
Activation date: 04/1971
Control tower: no
ARTCC: INDIANAPOLIS CENTER
FSS: DAYTON FLIGHT SERVICE STATION
NOTAMs facility: DAY (NOTAM-D service available)
Attendance: UNATNDD
Wind indicator: lighted
Segmented circle: no
Lights: ACTVT MIRL RY 18/36 AND REIL RY 18/36 - CTAF.
Beacon: white-green (lighted land airport)
Operates sunset to sunrise.

Airport Communications

CTAF: 122.9
WX AWOS-3 at I69 (19 nm NW): 127.275 (513-732-6978)
  • APCH/DEP SERVICE PROVIDED BY INDIANAPOLIS ARTCC ON FREQS 135.575/290.5 (MERWYN RCAG).

Nearby radio navigation aids

VOR radial/distance  VOR name  Freq  Var
FLMr059/24.4FALMOUTH VOR/DME117.0004W
MXQr191/33.1MIDWEST VOR/DME112.9004W
CVGr106/39.1CINCINNATI VORTAC117.3004W

 
NDB name  Hdg/Dist  Freq  Var  ID
WEST UNION280/15.035904WAMT .- -- -
SPORTYS131/19.424504WPWF .--. .-- ..-.
CINCINNATI132/27.133504WLUK .-.. ..- -.-

Airport Services

Fuel available: 100LL UL94
SELF SERVICE FUEL AVBL 24 HRS WITH CREDIT CARD.
Parking: tiedowns
Airframe service: FOR AIRFRAME & POWERPLANT REPAIRS PHONE 937-379-1055.
Bottled oxygen: NONE
Bulk oxygen: NONE

Runway Information

Runway 18/36

Dimensions: 3530 x 65 ft. / 1076 x 20 m
Surface: asphalt, in good condition
Runway edge lights: medium intensity
Runway edge markings: RWY 36 MARKINGS FADED.
RUNWAY 18  RUNWAY 36
Latitude: 38-53.203233N38-52.630235N
Longitude: 083-53.027545W083-52.900865W
Elevation: 955.6 ft.953.3 ft.
Gradient: 0.1%0.1%
Traffic pattern: leftleft
Runway heading: 175 magnetic, 170 true355 magnetic, 350 true
Visual slope indicator: 4-light PAPI on left (3.03 degrees glide path)4-light PAPI on left (3.03 degrees glide path)
Runway end identifier lights: yesyes
Touchdown point: yes, no lightsyes, no lights
Obstructions: 61 ft. trees, 588 ft. from runway, 250 ft. right of centerline, 6:1 slope to clear
24 FT. TREES, 0-160 FM THLD, 170 FT. L.
27 ft. tree, 260 ft. from runway, 237 ft. right of centerline, 2:1 slope to clear
35' TREE, 175' FM, 218' LT

Airport Ownership and Management from official FAA records

Ownership: Publicly-owned
Owner: BROWN CO COMM
BROWN COUNTY COURTHOUSE
GEORGETOWN, OH 45121
Phone 937-378-3956
Manager: STEVE AND SANDY MCKINNEY
8862 AIRPORT ROAD
GEORGETOWN, OH 45121
Phone 937-515-0313
STEVE R. MCKINNEY HOME 937-379-1634; BUS 937-379-1055.

Airport Operational Statistics

Aircraft based on the field: 14
Single engine airplanes: 14
    
Aircraft operations: avg 22/day *
61% local general aviation
37% transient general aviation
2% air taxi
<1% military
* for 12-month period ending 09 July 2016

Additional Remarks

AEROBATIC PRACTICE SFC TO 4500 FT AGL ABOVE RY 18/36.

Instrument Procedures

NOTE: All procedures below are presented as PDF files. If you need a reader for these files, you should download the free Adobe Reader.

NOT FOR NAVIGATION. Please procure official charts for flight.
FAA instrument procedures published for use from 3 January 2019 at 0901Z to 31 January 2019 at 0900Z.

 
IAPs - Instrument Approach Procedures
RNAV (GPS) RWY 36   download (174KB)
VOR/DME-A   download (162KB)
NOTE: Special Take-Off Minimums/Departure Procedures apply   download (164KB)

Other nearby airports with instrument procedures:

KAMT - Alexander Salamon Airport (15 nm E)
I69 - Clermont County Airport (19 nm NW)
KFGX - Fleming-Mason Airport (21 nm S)
KHOC - Highland County Airport (24 nm NE)
K62 - Gene Snyder Airport (26 nm SW)
 
Loc | Ops | Rwys | IFR | FBO | Links
Com | Nav | Svcs | Stats | Notes
Area around KGEO (Brown County Airport)
 
Road maps at: MapQuest Bing Google
 
Aerial photo
WARNING: Photo may not be current or correct
Aerial photo of KGEO (Brown County Airport)
Do you have a better or more recent aerial photo of Brown County Airport that you would like to share? If so, please send us your photo.

 
Sectional chart

 
Airport distance calculator
Flying to Brown County Airport? Find the distance to fly.

From to KGEO

Sunrise and sunset
Times for 17-Jan-2019
 Local
(UTC-5)
 Zulu
(UTC)
Morning civil twilight07:2412:24
Sunrise07:5312:53
Sunset17:3922:39
Evening civil twilight18:0823:08

Current date and time
Zulu (UTC)  17-Jan-2019 14:12:24
Local (UTC-5)  17-Jan-2019 09:12:24
 
METAR
KI69 
19nm NW 
171356Z AUTO 12004KT 2 1/2SM -SN BKN005 OVC020 00/00 A3014 RMK AO2 P0002 T00040001
KFGX 
21nm S 
171355Z AUTO 12004KT 10SM OVC046 01/00 A3017 RMK AO2 T00100004
KLUK 
28nm NW 
171353Z 06003KT 4SM -RA BR SCT009 OVC026 02/00 A3016 RMK AO2 SLP215 P0005 T00170000
KILN 
33nm N 
171354Z AUTO 13009KT 6SM BR OVC040 M01/M02 A3013 RMK AO2 SNB05E18 SLP231 P0000 T10061017
KCVG 
38nm W 
171352Z 12008KT 3SM -RA BR BKN006 OVC027 01/M01 A3011 RMK AO2 SLP200 VIS N21/2 P0003 T00111006
TAF
KLUK 
28nm NW 
171121Z 1712/1812 13005KT 5SM -RASN BR OVC018 FM171300 14005KT 5SM -RASN BR OVC012 FM171500 16006KT 5SM -RA BR OVC012 FM172300 20004KT 4SM BR VCSH OVC012 FM180200 24005KT 2SM BR OVC006 FM181100 30006KT 4SM BR OVC006
KILN 
33nm N 
171121Z 1712/1812 13003KT P6SM OVC018 FM171400 14008KT 2SM -SN BR OVC008 FM171600 16006KT 4SM -RASN BR OVC006 FM172300 19004KT 2SM BR VCSH OVC004 FM180200 24004KT 1SM BR OVC003 FM180500 27004KT 1/2SM FG OVC002 FM181100 29006KT 2SM BR OVC004
NOTAMs
Click for the latest NOTAMs
NOTAMs are issued by the DoD/FAA and will open in a separate window not controlled by AirNav.

 

 
 

FBO, Fuel Providers, and Aircraft Ground Support

  
 Business Name 
 
 Contact 
 
 Services / Description 
 
Fuel Prices
 
Comments
  
Brown County Pilots Association 937-379-1055
no information available

If you are affiliated with Brown County Pilots Association and would like to show here your services, contact info, web link, logo, and more, click here
100LL UL94
SS $5.29 $4.79 
 Updated 28-Dec-2018
 
   1 read write
SS=Self service
Update Fuel Prices
 

Would you like to see your business listed on this page?

 If your business provides an interesting product or service to pilots, flight crews, aircraft, or users of the Brown County Airport, you should consider listing it here.  To start the listing process, click on the button below
 
Add a business
 

Other Pages about Brown County Airport

Update a link
 
Copyright © AirNav, LLC. All rights reserved. Privacy Policy  Contact